{"data":{"norad_id":61976,"intl_designator":"2024-210T","name":"STARLINK-32611","alt_names":[],"object_type":"PAYLOAD","status":"ACTIVE","operator":null,"country":"US","launch_date":"2024-11-14","launch_site_code":"AFETR","launch_vehicle":null,"mission":null,"orbit_class":"UNKNOWN","rcs_meters":null,"size_class":null,"mass_kg":null,"dimensions":null,"purposes":["comms"],"wikipedia_slug":null,"has_3d_model":false,"image_url":null,"decayed_at":null,"tle_current":{"epoch":"2026-05-24T21:18:44.781984Z","epoch_age_seconds":85545,"freshness":"FRESH","line1":"1 61976U 24210T   26144.88801831  .00014035  00000+0  51820-3 0  9993","line2":"2 61976  43.0020 109.4824 0001557 274.3410  85.7264 15.27603514 86535","mean_motion":15.27603514,"eccentricity":0.0001557,"inclination_deg":43.002,"raan_deg":109.4824,"arg_perigee_deg":274.341,"mean_anomaly_deg":85.7264,"bstar":0.0005182,"rev_number":8653,"period_min":94.265297690327,"perigee_km":481.91041185514,"apogee_km":484.04696328025,"semimajor_km":6861.1156875677,"source":"CELESTRAK","updated_at":"2026-05-25T13:38:19.515899Z"}}}